Location: Misciano
(43.5000°N, 11.9500°E)
Time: 05:38:15
(UTC+00:00)

Cosmos 2233 Rocket - Pass Details

Date: 13 August 2020
Orbit: 952 x 991 km, 82.9° (Epoch: 19 September)

Event Time Altitude Azimuth Distance (km) Brightness Sun altitude
Exits shadow 21:45:56 63° 85° (E) 1,102 4.1 -28.6°
Drops below altitude 10° 21:52:01 10° 14° (NNE) 2,763 7.0 -29.0°
Sets 21:54:34 0° 11° (NNE) 3,714 7.8 -29.2°
